Date,TemperatureHighF,TemperatureAvgF,TemperatureLowF,DewpointHighF,DewpointAvgF,DewpointLowF,HumidityHigh,HumidityAvg,HumidityLow,PressureMaxIn,PressureMinIn,WindSpeedMaxMPH,WindSpeedAvgMPH,GustSpeedMaxMPH,PrecipitationSumIn
2013-1-1,26.4,21.7,17.3,20.0,16.5,11.4,89,80,72,30.66,30.50,13,1,13,0.00
2013-1-2,26.3,23.8,22.1,20.4,18.5,14.9,92,80,68,30.65,30.52,10,1,10,0.00
2013-1-3,25.7,22.9,21.0,19.0,15.4,11.9,87,73,61,30.52,30.35,13,2,13,0.00
2013-1-4,29.8,21.2,16.1,19.8,10.3,-99.9,90,77,64,30.45,30.36,8,-34,8,0.00
2013-1-5,28.2,25.7,24.4,24.7,22.1,18.2,93,86,77,30.43,30.17,6,0,6,0.00
2013-1-6,30.9,27.9,25.1,25.8,24.4,23.1,94,87,74,30.20,30.05,6,0,6,0.00
2013-1-7,47.0,31.7,24.5,36.9,26.9,21.5,93,83,58,30.05,29.80,30,2,30,0.36
2013-1-8,41.1,32.2,28.8,31.7,29.6,25.7,97,90,60,30.08,29.73,9,0,9,0.07
2013-1-9,47.0,33.7,27.5,36.0,27.4,20.2,93,79,46,29.77,29.52,25,3,25,0.24
2013-1-10,37.5,27.2,19.5,24.8,19.6,13.0,89,73,51,30.01,29.75,10,1,14,0.02
2013-1-11,30.4,20.0,13.6,15.9,11.2,6.0,80,69,48,30.29,30.01,15,4,15,0.01
2013-1-12,23.9,14.1,9.7,11.6,6.5,2.8,82,71,54,30.42,30.28,15,4,15,0.00
2013-1-13,23.8,15.2,10.2,12.0,7.2,2.7,82,70,54,30.51,30.39,13,2,13,0.00
2013-1-14,28.2,20.9,16.9,17.4,13.8,11.1,84,74,58,30.50,30.33,9,1,9,0.00
2013-1-15,25.6,18.9,13.6,17.7,13.2,8.0,85,78,63,30.65,30.49,10,2,10,0.00
2013-1-16,27.5,23.0,18.4,21.1,17.5,13.7,88,79,72,30.67,30.57,14,2,14,0.00
2013-1-17,29.0,24.9,21.8,20.7,18.5,15.5,80,76,69,30.60,30.38,13,2,13,0.00
2013-1-18,27.0,24.0,21.6,20.5,18.3,16.1,85,79,71,30.39,30.28,16,2,16,0.00
2013-1-19,29.5,22.6,16.2,21.3,17.5,13.1,90,81,65,30.57,30.39,13,2,13,0.00
2013-1-20,25.8,19.0,11.2,21.7,15.5,7.6,91,86,77,30.58,30.46,8,1,11,0.00
2013-1-21,23.3,17.8,15.2,17.7,13.7,10.2,89,84,77,30.47,30.36,14,2,14,0.00
2013-1-22,24.7,18.6,14.8,16.0,13.3,9.9,87,80,67,30.39,30.21,13,2,13,0.00
2013-1-23,29.1,23.6,18.8,24.6,19.7,15.7,91,85,74,30.21,29.96,6,0,6,0.00
2013-1-24,29.3,25.7,21.1,22.7,21.4,18.6,90,84,72,30.28,30.07,8,0,8,0.00
2013-1-25,34.9,25.6,19.1,24.8,16.4,-99.9,91,77,61,30.16,29.96,11,-13,11,0.02
2013-1-26,34.3,28.9,24.5,26.9,23.7,19.5,89,81,69,29.97,29.90,10,2,10,0.00
2013-1-27,31.2,28.9,27.3,25.9,24.2,22.5,89,82,74,30.01,29.94,7,0,7,0.00
2013-1-28,31.3,27.7,24.8,26.2,23.1,20.5,90,83,70,29.97,29.86,9,1,9,0.00
2013-1-29,47.7,30.8,21.3,32.3,25.2,18.9,93,80,50,30.18,29.88,17,1,20,0.00
2013-1-30,54.8,42.2,32.7,33.5,30.4,24.0,87,65,38,30.20,30.06,35,2,35,0.00
2013-1-31,44.8,33.3,27.6,34.2,27.8,-99.9,96,84,64,30.24,30.15,8,-10,8,0.00
2013-2-1,39.9,29.9,22.9,30.5,26.6,21.2,97,88,67,30.45,30.20,9,0,9,0.00
2013-2-2,30.6,24.4,19.9,28.8,22.7,17.5,96,93,90,30.50,30.27,7,0,7,0.00
2013-2-3,31.8,26.9,21.6,29.2,24.8,19.4,96,92,86,30.27,30.11,7,0,7,0.00
2013-2-4,37.2,30.7,26.1,31.7,26.8,-99.9,96,91,78,30.12,29.93,8,-7,8,0.00
2013-2-5,37.8,32.8,29.1,33.5,30.7,28.1,97,92,82,29.93,29.77,9,0,9,0.01
2013-2-6,40.5,32.9,25.0,34.8,30.5,23.5,97,91,76,30.00,29.86,7,0,7,0.01
2013-2-7,48.9,36.5,30.7,36.2,29.7,18.6,98,79,31,30.04,29.84,13,2,14,0.02
2013-2-8,44.8,31.6,25.1,27.9,22.2,17.0,85,70,40,30.18,30.05,11,2,11,0.00
2013-2-9,43.1,32.5,25.6,30.3,25.1,21.4,88,75,51,30.20,30.03,10,1,10,0.00
2013-2-10,48.9,33.6,25.0,30.8,25.6,20.9,86,74,43,30.27,30.14,13,2,13,0.00
2013-2-11,38.2,29.9,22.5,28.8,24.5,-99.9,93,83,67,30.22,30.15,8,-3,8,0.00
2013-2-12,39.9,34.1,27.6,32.5,29.7,25.6,94,84,70,30.27,30.07,11,1,11,0.00
2013-2-13,51.9,45.4,32.8,35.1,27.3,21.4,84,51,31,30.32,30.05,26,4,26,0.00
2013-2-14,49.4,37.0,29.5,30.9,27.0,23.5,91,69,40,30.50,30.33,13,1,13,0.00
2013-2-15,47.7,34.8,26.3,33.6,28.1,24.6,93,78,45,30.53,30.24,10,1,10,0.00
2013-2-16,51.4,36.6,27.2,35.1,27.9,21.5,94,73,32,30.24,29.91,25,2,25,0.00
2013-2-17,50.4,37.8,28.1,28.7,24.6,16.6,88,62,27,30.06,29.98,17,2,17,0.00
2013-2-18,40.2,32.7,28.1,30.0,25.3,21.5,89,75,59,30.05,29.77,9,1,9,0.00
2013-2-19,45.1,34.4,25.8,27.5,23.3,19.7,87,65,38,29.91,29.73,11,2,11,0.00
2013-2-20,45.7,30.4,24.5,29.1,12.5,-99.9,85,61,35,29.99,29.88,10,-64,10,0.00
2013-2-21,46.4,32.4,24.5,29.9,22.0,-99.9,87,72,47,29.98,29.89,20,-3,20,0.00
2013-2-22,46.4,35.9,29.7,36.1,24.9,-99.9,96,76,56,29.90,29.53,24,-13,24,0.03
2013-2-23,47.4,35.5,26.9,34.0,26.6,23.8,96,73,42,30.22,29.70,25,2,25,0.14
2013-2-24,46.2,36.1,29.0,31.0,27.7,24.2,86,72,46,30.23,29.95,11,0,11,0.00
2013-2-25,48.5,35.7,29.0,33.8,18.3,-99.9,95,62,35,30.10,29.81,28,-38,28,0.01
2013-2-26,50.5,38.3,32.7,28.9,15.4,-99.9,76,49,26,30.23,30.11,14,-48,14,0.00
2013-2-27,51.3,38.6,28.1,32.2,27.0,22.5,85,65,34,30.24,30.13,9,1,9,0.00
2013-2-28,40.6,37.5,35.3,38.0,34.3,29.1,98,88,70,30.28,30.17,7,0,7,0.19
2013-3-1,63.7,44.2,34.4,46.6,37.2,33.6,99,80,34,30.28,30.15,16,1,16,0.00
2013-3-2,56.9,43.6,35.8,41.2,35.1,19.0,92,74,43,30.17,29.83,24,1,24,0.02
2013-3-3,49.4,40.2,31.0,26.3,17.6,-99.9,67,43,23,30.19,29.97,29,-6,29,0.00
2013-3-4,47.0,29.2,27.5,28.3,-8.4,-99.9,71,39,32,30.27,30.01,14,-188,14,0.00
2013-3-5,43.8,15.5,31.2,32.9,-51.9,-99.9,94,26,36,30.01,29.80,9,-497,9,0.01
2013-3-6,37.6,34.7,32.4,36.0,32.4,-99.9,98,94,90,29.81,29.61,4,-10,4,0.28
2013-3-7,50.4,39.0,32.5,39.3,35.0,30.7,98,87,56,30.04,29.77,10,1,10,0.01
2013-3-8,53.1,38.0,30.4,36.2,27.4,-99.9,93,73,45,30.14,29.95,11,-32,11,0.00
2013-3-9,58.3,38.2,29.4,33.0,17.9,-99.9,84,57,26,30.32,30.14,10,-25,10,0.00
2013-3-10,57.5,40.8,37.5,31.5,10.4,-99.9,68,42,31,30.32,30.15,29,-105,29,0.00
2013-3-11,54.5,45.1,34.0,34.0,24.7,18.4,69,46,26,30.32,30.13,23,3,24,0.00
2013-3-12,60.4,48.0,37.3,39.4,32.3,-99.9,88,61,41,30.13,29.91,17,-19,17,0.00
2013-3-13,62.6,50.4,38.3,44.0,38.3,35.0,90,66,39,30.04,29.95,16,1,16,0.00
2013-3-14,63.4,49.3,40.3,44.8,37.6,24.4,90,68,24,30.02,29.86,22,2,22,0.00
2013-3-15,60.5,49.4,38.0,40.8,34.7,28.9,86,60,30,30.08,29.97,23,2,23,0.00
2013-3-16,55.9,44.6,37.2,37.8,31.7,24.5,86,63,33,29.98,29.67,35,3,35,0.00
2013-3-17,46.5,39.8,30.1,29.0,23.1,15.2,81,53,30,30.00,29.73,34,5,34,0.00
2013-3-18,47.7,37.5,27.8,32.9,19.6,-99.9,82,54,27,30.15,29.95,35,-10,35,0.00
2013-3-19,48.2,37.2,27.8,35.4,21.2,12.5,96,56,27,30.23,29.77,17,2,17,0.15
2013-3-20,49.8,38.6,32.2,39.4,31.7,17.5,98,79,38,29.77,29.45,29,2,29,0.50
2013-3-21,47.4,39.4,31.0,28.2,21.7,13.7,78,50,27,30.03,29.77,32,4,32,0.00
2013-3-22,45.7,34.7,28.4,25.4,11.9,-99.9,77,49,27,30.27,30.03,22,-32,22,0.00
2013-3-23,49.1,35.5,26.1,26.7,19.2,13.5,77,54,26,30.35,30.19,10,2,10,0.00
2013-3-24,51.1,37.0,26.7,27.7,20.5,13.7,74,54,24,30.34,30.14,10,2,10,0.00
2013-3-25,55.1,39.2,27.5,29.5,21.9,14.4,77,54,21,30.17,29.95,9,2,10,0.00
2013-3-26,61.6,44.2,30.0,36.6,27.0,21.4,77,54,25,30.01,29.84,10,2,10,0.00
2013-3-27,60.4,48.1,39.1,39.2,32.8,27.0,81,58,30,29.94,29.87,11,-2,11,0.00
2013-3-28,64.2,48.5,36.9,42.8,35.2,31.3,84,63,33,30.02,29.92,10,3,10,0.00
2013-3-29,67.9,50.5,36.8,38.1,32.1,22.6,80,54,19,30.14,30.02,16,4,16,0.00
2013-3-30,70.3,51.4,36.6,43.3,33.5,26.7,77,54,25,30.25,30.02,11,2,11,0.00
2013-3-31,73.9,53.3,37.8,41.4,35.1,27.3,85,55,19,30.06,29.84,11,2,11,0.00
2013-4-1,78.5,57.1,40.2,41.5,36.5,31.0,78,51,20,29.93,29.79,18,3,18,0.00
2013-4-2,67.7,52.5,40.1,42.4,37.3,29.9,87,60,25,29.98,29.90,21,2,24,0.00
2013-4-3,71.3,54.9,38.0,39.3,34.2,26.1,84,50,21,30.03,29.88,14,2,14,0.00
2013-4-4,55.7,50.1,44.9,48.8,41.7,31.7,99,75,41,29.87,29.61,10,1,10,0.13
2013-4-5,62.0,51.4,41.2,45.5,41.3,37.0,98,71,40,29.73,29.67,22,3,22,0.02
2013-4-6,57.0,49.0,41.2,43.9,36.4,26.9,97,64,35,29.78,29.65,23,3,24,0.02
2013-4-7,52.3,42.8,33.8,40.5,33.0,26.6,97,71,39,29.72,29.48,24,2,24,0.46
2013-4-8,56.5,45.7,36.8,42.5,33.9,-99.9,91,68,42,30.15,29.71,11,-6,11,0.02
2013-4-9,60.9,48.3,35.5,40.5,35.0,30.5,87,63,35,30.26,30.06,15,2,15,0.00
2013-4-10,59.2,49.8,42.9,48.1,37.0,28.7,88,64,35,30.06,29.76,32,3,33,0.04
2013-4-11,57.2,46.9,37.3,35.6,27.8,19.6,85,52,24,30.08,30.02,25,4,25,0.00
2013-4-12,54.7,42.7,34.4,36.1,29.5,21.9,87,61,33,30.06,29.51,22,2,22,0.00
2013-4-13,50.8,43.0,33.2,31.2,25.2,17.4,88,51,31,29.81,29.48,31,5,33,0.00
2013-4-14,53.9,42.5,31.9,32.2,25.4,10.5,81,54,21,29.87,29.78,18,2,18,0.00
2013-4-15,51.3,39.8,33.2,36.8,32.1,27.7,93,75,41,30.12,29.57,14,2,22,0.13
2013-4-16,54.4,43.4,34.0,34.1,23.4,11.0,91,53,19,30.26,30.12,17,1,17,0.00
2013-4-17,58.9,47.1,30.8,33.0,25.5,17.5,77,46,21,30.39,30.25,28,4,28,0.00
2013-4-18,63.9,51.7,39.2,40.6,33.2,27.7,82,51,31,30.25,30.05,22,3,22,0.00
2013-4-19,62.4,52.3,41.1,40.8,37.2,32.9,91,60,36,30.05,29.86,29,4,29,0.00
2013-4-20,60.4,53.9,41.3,36.2,32.3,26.4,77,45,30,30.02,29.92,38,6,38,0.00
2013-4-21,58.0,47.9,35.9,37.3,31.3,22.9,93,56,28,30.26,29.97,25,5,25,0.01
2013-4-22,60.9,45.1,30.6,33.3,22.3,1.8,91,50,12,30.47,30.26,13,2,13,0.00
2013-4-23,64.8,47.0,33.7,35.1,25.2,13.9,69,47,14,30.31,30.13,13,2,13,0.00
2013-4-24,72.0,53.0,35.2,37.5,28.4,12.1,74,44,11,30.27,29.86,24,3,24,0.00
2013-4-25,72.8,60.8,43.8,41.6,32.8,21.5,67,37,23,29.96,29.83,26,5,26,0.00
2013-4-26,76.7,61.6,46.5,42.4,34.6,19.8,78,44,12,30.03,29.94,25,3,25,0.00
2013-4-27,68.3,53.1,40.6,40.2,35.1,21.5,82,55,19,30.01,29.92,32,3,35,0.00
2013-4-28,60.9,51.2,38.8,41.9,33.5,24.6,91,54,27,30.00,29.77,31,4,31,0.00
2013-4-29,51.0,47.1,36.6,41.0,24.9,13.3,87,44,24,29.97,29.69,37,6,37,0.02
2013-4-30,56.6,43.1,32.1,33.9,23.9,10.8,80,51,17,30.33,29.98,24,3,24,0.00
2013-5-1,66.0,48.0,31.2,38.0,24.3,14.1,73,45,15,30.49,30.33,10,2,10,0.00
2013-5-2,74.6,56.5,38.3,44.3,31.4,24.2,72,43,17,30.51,30.15,15,2,15,0.00
2013-5-3,54.5,51.8,48.9,44.6,37.4,32.1,70,58,49,30.18,30.15,8,2,8,0.00
2013-5-5,80.8,62.2,45.5,49.5,36.3,26.8,69,44,14,29.99,29.73,6,2,14,0.00
2013-5-6,87.3,65.1,46.9,50.9,36.9,26.4,65,41,11,29.83,29.59,7,2,14,0.00
2013-5-7,90.8,69.1,49.2,58.4,41.8,35.0,73,42,15,29.73,29.63,5,1,13,0.00
2013-5-8,90.6,69.6,52.1,56.2,45.8,39.8,75,48,17,29.87,29.73,4,1,14,0.00
2013-5-9,92.3,69.6,49.6,52.5,37.8,20.0,65,38,9,29.98,29.84,6,2,18,0.00
2013-5-10,91.7,70.4,49.8,50.3,37.6,31.2,60,34,13,30.04,29.91,7,2,21,0.00
2013-5-11,89.2,71.4,56.0,62.9,43.6,35.1,66,41,16,29.99,29.83,10,1,13,0.00
2013-5-12,75.6,66.7,58.9,52.2,46.4,39.7,74,50,29,29.91,29.83,24,4,24,0.00
2013-5-13,68.1,56.7,43.9,52.7,43.5,29.0,89,63,37,30.03,29.76,26,2,26,0.00
2013-5-14,66.3,54.2,42.3,38.1,31.7,16.7,81,47,16,30.08,29.94,18,2,18,0.00
2013-5-15,70.6,56.9,40.8,47.5,36.2,29.3,77,49,24,30.00,29.79,9,1,9,0.00
2013-5-16,73.5,59.6,50.7,49.6,44.7,37.1,90,61,29,29.86,29.72,16,2,16,0.00
2013-5-17,70.1,58.6,48.3,53.4,44.2,38.8,81,60,34,29.85,29.75,14,1,14,0.00
2013-5-18,69.3,58.0,46.4,46.2,38.4,29.7,83,52,26,30.08,29.85,24,2,24,0.00
2013-5-19,72.7,57.4,41.8,44.3,38.6,32.4,87,55,26,30.16,30.08,24,2,24,0.00
2013-5-20,49.5,46.2,43.8,40.6,38.8,37.4,81,75,68,30.18,30.16,11,3,11,0.00
2013-5-21,90.6,69.6,49.6,56.2,40.5,20.0,71,40,9,29.98,29.76,6,2,14,0.00
2013-5-22,92.3,69.0,49.8,52.5,37.3,30.2,63,37,11,30.04,29.84,5,2,18,0.00
2013-5-23,91.7,73.2,56.0,50.3,40.8,33.8,58,34,13,29.99,29.87,7,2,21,0.00
2013-5-24,89.2,61.4,43.5,62.9,45.3,37.1,89,60,16,29.91,29.83,7,1,13,0.00
2013-5-25,65.5,53.6,41.6,50.1,40.0,33.9,87,63,34,29.93,29.84,11,2,11,0.00
2013-5-26,68.1,55.5,45.1,50.5,43.7,40.0,86,67,40,29.89,29.80,10,1,10,0.00
2013-5-27,61.6,52.7,44.3,52.4,43.5,-99.9,97,75,49,29.83,29.68,13,2,13,0.03
2013-5-28,70.8,57.3,46.4,50.7,44.0,33.7,98,66,27,29.73,29.64,20,2,20,0.00
2013-5-29,63.7,53.1,41.8,52.6,43.5,34.5,92,71,39,29.81,29.58,18,1,18,0.08
2013-5-30,66.9,50.4,37.9,53.0,40.9,30.2,97,73,30,30.07,29.81,22,1,22,0.00
2013-5-31,73.7,57.1,39.3,48.9,38.4,29.4,92,57,20,30.16,30.07,10,0,10,0.00
2013-6-1,75.3,61.7,48.2,52.7,40.9,34.6,75,50,26,30.11,29.87,18,2,18,0.00
2013-6-2,72.8,60.7,47.3,47.6,40.8,33.7,85,52,26,29.91,29.80,20,3,20,0.00
2013-6-3,77.7,62.7,47.1,52.8,41.7,30.4,85,52,18,29.95,29.83,17,2,17,0.00
2013-6-4,83.0,65.2,47.6,55.6,45.0,34.5,82,54,20,30.04,29.86,10,1,10,0.00
2013-6-5,84.0,70.4,53.6,57.7,46.9,39.0,77,48,21,29.92,29.81,24,4,24,0.00
2013-6-6,89.9,72.1,53.6,51.3,43.0,27.5,75,40,13,29.90,29.73,29,2,29,0.00
2013-6-7,76.0,70.0,60.7,52.7,44.4,34.8,63,40,27,29.89,29.75,32,5,32,0.00
2013-6-8,80.9,67.3,49.6,49.5,38.9,-99.9,73,39,14,29.94,29.80,25,3,25,0.00
2013-6-9,74.4,65.3,53.5,45.3,35.8,25.0,66,36,16,29.87,29.76,25,4,25,0.00
2013-6-10,81.1,59.6,44.9,48.2,26.4,-99.9,72,39,15,29.82,29.60,25,-40,25,0.00
2013-6-11,69.1,57.0,46.8,48.0,39.3,31.6,82,55,26,29.92,29.66,23,2,25,0.00
2013-6-12,72.0,59.5,42.6,42.0,35.6,29.2,79,44,23,29.98,29.88,21,2,21,0.00
2013-6-13,72.0,58.4,44.1,48.6,38.5,30.0,82,51,23,30.00,29.91,23,3,23,0.00
2013-6-14,76.0,63.8,50.4,51.4,40.2,33.6,74,45,23,30.02,29.86,17,2,17,0.00
2013-6-15,83.2,64.6,47.0,61.3,44.3,36.3,78,52,20,29.95,29.79,10,1,10,0.00
2013-6-16,86.1,70.6,52.8,65.6,46.9,34.0,76,47,18,29.93,29.75,14,1,14,0.00
2013-6-17,81.8,69.9,56.9,58.1,49.9,34.6,87,54,19,29.87,29.68,16,1,16,0.01
2013-6-18,71.5,61.4,53.2,54.7,49.5,39.8,94,67,33,29.78,29.73,17,1,17,0.01
2013-6-19,66.6,59.4,53.2,53.0,46.0,39.2,94,65,39,29.80,29.68,26,3,26,0.03
2013-6-20,62.7,59.0,53.2,46.5,40.9,36.8,78,52,41,29.92,29.72,25,3,25,0.00
2013-6-21,68.3,60.0,51.3,55.4,47.2,38.8,82,65,36,30.00,29.92,8,0,8,0.00
2013-6-22,79.6,65.6,50.7,57.3,48.2,40.3,86,57,27,29.98,29.76,11,1,11,0.00
2013-6-23,75.8,65.8,55.0,60.7,50.9,42.0,88,61,31,29.78,29.50,10,1,10,0.00
2013-6-24,69.1,61.4,52.2,59.6,55.4,46.8,96,81,52,29.60,29.49,10,0,10,0.08
2013-6-25,70.9,60.2,49.5,55.9,49.9,45.5,88,70,46,29.73,29.60,7,1,10,0.00
2013-6-26,75.1,62.4,50.4,55.2,49.5,44.6,92,65,37,29.99,29.74,13,1,13,0.00
2013-6-27,77.7,64.1,55.1,61.0,53.6,46.7,89,70,44,30.11,29.98,8,0,8,0.01
2013-6-28,89.9,72.0,56.9,69.9,58.4,53.7,92,66,32,30.13,29.89,9,0,9,0.00
2013-6-29,84.0,68.4,62.3,68.0,54.5,-99.9,92,70,46,29.95,29.87,20,-33,20,0.02
2013-6-30,94.7,75.9,59.3,67.2,58.9,50.9,93,62,24,29.95,29.77,10,1,10,0.00
2013-7-1,98.7,77.9,63.2,71.2,59.1,47.2,80,56,18,29.91,29.72,17,2,17,0.00
2013-7-2,99.9,82.6,65.5,66.7,54.3,43.2,76,43,16,29.85,29.72,28,4,28,0.00
2013-7-3,91.4,78.0,60.7,57.0,45.7,19.8,74,36,10,29.87,29.73,22,2,22,0.00
2013-7-4,84.0,70.2,52.6,51.4,42.6,31.0,80,42,17,29.78,29.69,28,2,28,0.00
2013-7-5,82.4,66.5,49.1,54.3,46.5,38.5,86,54,24,29.76,29.66,22,2,22,0.00
2013-7-6,88.4,69.8,53.3,58.3,48.0,35.7,79,51,16,29.81,29.63,10,1,10,0.00
2013-7-7,89.3,71.7,58.3,61.6,49.6,39.5,93,51,18,29.79,29.62,17,2,17,0.03
2013-7-8,88.4,72.3,56.0,59.4,51.3,38.3,87,54,19,29.91,29.73,13,1,13,0.00
2013-7-9,92.7,74.6,58.3,64.3,52.9,40.4,77,51,18,29.99,29.77,10,1,10,0.00
2013-7-10,87.0,75.0,59.8,61.8,46.9,34.2,77,42,16,29.82,29.66,25,4,25,0.00
2013-7-11,77.9,69.1,59.8,51.7,39.7,28.4,71,37,19,29.79,29.69,26,3,26,0.00
2013-7-12,74.6,65.6,53.1,51.0,37.0,25.9,67,37,18,29.90,29.76,20,2,20,0.00
2013-7-13,84.7,65.5,48.5,52.1,41.4,26.3,76,47,13,30.01,29.89,11,1,11,0.00
2013-7-14,88.2,71.3,50.5,50.7,38.3,23.1,71,36,10,29.99,29.75,24,3,24,0.00
2013-7-15,84.9,70.2,54.8,49.9,35.0,-99.9,64,34,15,29.91,29.79,22,-9,22,0.00
2013-7-16,89.3,70.9,53.6,64.3,45.6,-99.9,68,45,13,29.92,29.69,11,2,11,0.00
2013-7-17,90.7,75.6,62.0,63.8,52.1,36.5,85,49,17,29.93,29.71,18,2,18,0.03
2013-7-18,95.4,76.2,58.3,63.7,48.0,37.0,64,40,15,30.02,29.83,17,2,17,0.00
2013-7-19,97.3,77.6,57.0,54.5,42.5,8.8,69,35,6,29.95,29.74,29,3,29,0.00
2013-7-20,94.3,74.2,56.5,54.1,37.1,-99.9,75,32,9,29.82,29.64,30,-30,30,0.00
2013-7-21,94.9,75.4,54.7,55.8,46.3,33.5,71,41,13,29.70,29.58,32,2,32,0.00
2013-7-22,93.6,76.6,54.4,57.6,48.0,37.9,79,42,15,29.76,29.64,23,2,23,0.00
2013-7-23,100.4,78.3,58.1,57.7,47.8,33.8,72,40,11,29.87,29.68,15,1,15,0.00
2013-7-24,98.7,77.5,58.7,56.6,45.6,19.7,77,39,7,29.84,29.70,15,2,15,0.00
2013-7-25,97.1,77.5,57.0,55.2,42.5,14.3,71,35,5,29.87,29.77,22,3,22,0.00
2013-7-26,94.7,76.6,56.2,50.9,37.9,24.0,68,28,9,29.92,29.80,24,4,24,0.00
2013-7-27,88.0,76.6,59.8,52.1,39.3,28.4,70,29,13,29.87,29.70,20,3,20,0.00
2013-7-28,88.2,70.1,53.8,52.1,41.9,-99.9,78,43,14,29.77,29.64,20,1,20,0.00
2013-7-29,89.0,66.0,56.6,64.2,34.9,-99.9,71,44,16,29.80,29.69,11,-65,11,0.00
2013-7-30,91.4,68.6,59.6,58.9,39.4,-99.9,71,43,13,29.94,29.81,10,-51,10,0.00
2013-7-31,94.0,65.2,59.9,48.0,42.9,-99.9,64,47,16,30.00,29.75,11,-8,29,0.00
2013-8-6,94.5,76.8,59.8,57.4,47.1,26.9,70,42,9,29.83,29.68,7,2,23,0.00
2013-8-7,93.8,76.0,59.1,56.9,46.5,39.0,67,39,17,29.80,29.68,8,2,22,0.00
2013-8-8,90.7,75.4,61.0,62.4,52.1,45.0,72,48,23,29.81,29.67,4,0,11,0.00
2013-8-9,95.2,77.3,62.9,66.5,54.7,47.3,70,50,20,29.77,29.59,4,1,16,0.00
2013-8-10,90.4,77.5,65.3,66.0,60.6,51.8,92,60,27,29.85,29.63,4,1,20,2.42
2013-8-11,86.4,72.3,60.1,66.1,59.5,52.6,94,68,32,29.89,29.71,7,1,31,2.15
2013-8-12,87.3,69.5,56.7,84.2,57.8,46.0,91,66,25,29.89,29.72,7,0,13,0.00
2013-8-13,90.7,49.1,61.6,60.6,-4.5,-99.9,81,28,17,29.92,29.74,8,-378,8,0.00
2013-8-14,86.1,35.6,63.9,67.5,-29.4,-99.9,72,22,34,29.86,29.66,10,-550,10,0.00
2013-8-15,83.6,34.4,67.8,66.2,-30.7,-99.9,78,22,35,29.82,29.72,18,-559,18,0.00
2013-8-16,88.0,33.0,64.0,56.8,-35.4,-99.9,69,18,25,29.90,29.74,10,-574,10,0.00
2013-8-17,82.6,33.1,72.1,60.5,-37.8,-99.9,63,15,27,29.88,29.79,21,-581,21,0.00
2013-8-18,85.5,33.0,68.6,57.2,-39.8,-99.9,55,13,22,29.96,29.80,22,-591,22,0.00
2013-8-19,81.1,32.4,73.9,57.7,-39.7,-99.9,57,13,26,29.92,29.83,26,-587,26,0.00
2013-8-20,86.1,33.1,70.3,50.7,-41.4,-99.9,47,11,15,29.96,29.80,15,-587,15,0.00
2013-8-21,-200.0,0.0,200.0,-99.9,-99.9,-99.9,0,0,100,29.94,29.90,0,-999,0,0.00
2013-8-22,83.5,59.6,50.0,99.9,51.9,44.8,57,47,30,29.88,29.64,0,0,8,0.00
2013-8-23,82.3,59.6,50.0,56.6,51.0,47.7,53,47,30,29.72,29.59,7,0,16,0.00
2013-8-24,83.2,43.8,50.0,52.2,-1.7,-99.9,63,28,25,29.74,29.60,18,-340,18,0.00
2013-8-25,79.6,28.5,66.9,59.7,-43.7,-99.9,61,15,29,29.81,29.65,11,-617,11,0.00
2013-8-26,77.2,23.5,63.2,58.3,-49.9,-99.9,80,18,38,29.84,29.70,7,-673,11,0.00
2013-8-27,84.0,41.3,63.9,61.8,-16.9,-99.9,78,25,29,29.87,29.65,8,-459,8,0.02
2013-8-28,85.7,71.9,56.6,64.8,56.5,47.8,87,62,30,29.77,29.69,10,0,10,0.01
2013-8-29,82.2,67.5,58.9,65.8,59.3,53.1,98,77,39,29.89,29.74,14,0,14,0.30
2013-8-30,79.8,66.6,53.5,58.6,50.3,41.2,97,61,27,30.04,29.89,15,1,15,0.00
2013-8-31,88.1,66.7,51.6,60.2,51.0,45.6,82,61,26,30.09,29.83,10,2,10,0.00
2013-9-1,93.5,70.9,55.7,61.5,53.0,47.4,79,57,22,29.89,29.64,10,2,10,0.00
2013-9-2,90.9,72.2,53.5,61.5,53.8,48.4,86,56,25,29.82,29.68,12,2,13,0.00
2013-9-3,88.3,71.7,59.8,63.1,56.7,49.7,83,62,30,29.91,29.77,15,2,15,0.00
2013-9-4,89.5,71.9,60.5,67.5,58.5,53.6,82,65,33,29.94,29.80,13,2,13,0.00
2013-9-5,85.5,72.7,63.0,65.0,60.2,54.2,94,67,35,29.93,29.72,41,2,41,0.81
2013-9-6,72.0,63.1,56.9,61.9,57.8,55.1,97,84,60,30.08,29.84,9,1,9,0.00
2013-9-7,65.0,59.8,55.2,61.1,57.2,53.5,95,91,81,30.08,30.01,7,1,7,0.13
2013-9-8,85.2,64.2,51.5,62.6,54.1,-99.9,96,75,38,30.07,29.87,15,-8,15,0.00
2013-9-9,90.0,68.8,54.7,61.1,54.8,49.7,89,64,28,29.96,29.81,11,2,11,0.00
2013-9-10,89.5,69.1,56.3,62.6,55.2,50.4,83,64,28,30.00,29.87,11,2,11,0.00
2013-9-11,91.9,70.7,57.1,63.3,55.4,49.8,81,62,25,30.04,29.90,12,2,12,0.00
2013-9-12,93.0,72.1,57.6,63.9,55.4,48.2,81,59,24,29.99,29.77,10,2,10,0.00
2013-9-13,94.6,73.1,59.7,65.2,57.1,51.6,79,61,25,29.81,29.63,11,2,11,0.00
2013-9-14,93.7,73.8,59.7,67.2,57.6,51.4,80,61,25,29.82,29.68,10,2,10,0.00
2013-9-15,89.8,73.9,61.0,63.6,56.2,48.7,91,58,26,29.74,29.52,26,3,26,0.32
2013-9-16,75.8,65.1,53.3,58.3,52.2,46.0,95,67,36,29.78,29.67,23,4,23,0.00
2013-9-17,71.5,60.9,52.1,53.8,48.1,42.9,92,65,45,29.79,29.65,24,3,24,0.00
2013-9-18,70.5,57.8,46.3,50.2,43.7,40.7,89,62,36,30.04,29.78,22,2,22,0.00
2013-9-19,74.0,56.0,44.2,50.8,42.3,38.2,83,63,30,30.10,29.89,10,2,11,0.00
2013-9-20,77.4,59.2,45.8,56.9,45.1,38.7,80,62,29,29.91,29.52,10,3,10,0.00
2013-9-21,72.6,61.4,49.6,52.6,45.2,36.1,91,60,28,29.62,29.54,21,3,21,0.00
2013-9-22,65.0,52.6,44.2,52.1,44.5,39.6,93,76,41,29.71,29.56,11,2,11,0.02
2013-9-23,62.7,52.0,41.5,53.8,44.1,39.6,95,76,51,29.91,29.71,15,2,15,0.03
2013-9-24,65.9,53.0,44.5,45.1,40.5,34.3,89,66,33,29.90,29.73,16,2,16,0.00
2013-9-25,68.1,53.5,42.2,48.3,40.8,33.7,88,65,29,29.93,29.78,9,2,9,0.00
2013-9-26,66.9,53.0,44.2,48.8,41.9,35.3,89,68,33,30.05,29.93,7,2,10,0.00
2013-9-27,58.7,49.9,40.2,48.9,42.6,35.9,92,77,51,30.05,29.86,9,1,9,0.00
2013-9-28,57.4,51.3,45.0,53.9,48.1,42.6,95,89,80,29.86,29.34,14,1,14,0.19
2013-9-29,61.7,51.2,40.4,52.0,44.1,39.4,97,79,46,29.56,29.28,15,2,15,0.13
2013-9-30,59.6,47.6,37.9,47.3,40.8,36.0,94,79,49,29.89,29.32,21,2,21,0.10
2013-10-1,59.9,44.8,34.3,43.0,36.7,32.9,96,77,41,30.12,29.89,17,2,18,0.00
2013-10-2,52.1,45.3,37.0,45.5,40.3,34.6,96,83,66,30.14,30.07,11,1,11,0.04
2013-10-3,64.5,46.0,35.7,43.7,39.1,34.2,96,80,34,30.45,30.14,8,2,8,0.00
2013-10-4,64.5,47.4,36.2,46.6,39.0,33.3,90,75,40,30.54,30.37,11,2,11,0.00
2013-10-5,64.3,49.7,38.6,49.1,41.4,35.7,91,75,46,30.41,30.25,9,2,9,0.00
2013-10-6,69.3,50.1,40.5,47.8,42.3,37.5,91,77,39,30.26,29.89,10,2,10,0.00
2013-10-7,64.1,51.1,39.9,48.3,39.9,36.5,94,69,40,29.89,29.81,27,4,27,0.00
2013-10-8,58.6,45.8,39.5,43.3,39.3,34.9,92,79,43,30.06,29.86,17,2,17,0.07
2013-10-9,61.1,46.8,35.2,47.1,38.0,32.1,92,74,39,30.16,29.86,13,3,14,0.00
2013-10-10,63.7,51.5,41.0,41.8,36.9,32.7,80,60,34,30.03,29.83,20,2,20,0.00
2013-10-11,58.2,45.6,35.6,46.0,35.9,30.6,86,70,41,30.15,30.03,13,2,13,0.00
2013-10-12,57.9,47.0,42.3,42.5,38.9,36.3,89,74,47,30.20,30.04,9,2,9,0.00
2013-10-13,62.8,45.8,36.5,43.1,37.6,33.9,92,76,39,30.36,30.20,9,2,9,0.00
2013-10-14,62.6,45.2,35.6,40.6,35.0,31.8,86,70,33,30.46,30.36,11,3,11,0.00
2013-10-15,59.9,45.9,34.6,47.0,37.1,30.9,87,73,46,30.46,30.17,11,2,11,0.00
2013-10-16,66.0,49.7,41.5,45.0,39.9,36.7,88,71,40,30.22,30.10,10,2,10,0.00
2013-10-17,64.3,47.3,37.5,44.1,38.9,34.3,90,75,39,30.30,30.21,10,3,10,0.00
2013-10-18,63.2,46.1,35.3,43.9,38.6,32.4,92,77,46,30.32,30.16,10,2,11,0.00
2013-10-19,65.2,47.5,37.0,45.8,39.3,33.8,91,75,42,30.19,30.08,10,2,10,0.00
2013-10-20,68.3,49.8,39.0,46.6,40.8,35.4,88,73,41,30.18,30.06,11,2,11,0.00
2013-10-21,70.2,51.8,41.8,47.9,42.3,37.2,86,71,41,30.21,30.09,11,2,11,0.00
2013-10-22,69.5,50.7,40.2,48.8,42.9,37.2,91,76,44,30.22,30.07,10,2,11,0.00
2013-10-23,67.7,49.2,38.9,48.5,42.4,36.4,93,79,47,30.18,30.07,10,2,10,0.00
2013-10-24,63.4,45.7,37.3,46.1,40.2,35.1,92,82,51,30.17,30.05,9,3,9,0.00
2013-10-25,61.4,46.3,38.0,45.4,40.2,35.1,91,81,54,30.28,30.14,9,2,11,0.00
2013-10-26,62.1,45.8,36.3,45.7,40.2,34.4,93,82,55,30.35,30.07,6,2,11,0.00
2013-10-27,52.9,45.5,36.1,46.9,42.5,34.8,97,89,80,30.07,29.81,7,1,8,0.00
2013-10-28,56.8,45.6,34.3,46.9,31.9,23.1,89,63,28,30.03,29.88,5,1,19,0.00
2013-10-29,36.5,33.3,30.8,30.8,25.1,23.6,82,72,63,30.05,29.98,10,5,11,0.00
2013-10-30,51.5,38.1,28.4,33.5,29.7,24.7,87,73,45,30.11,30.03,9,1,9,0.00
2013-10-31,64.1,46.3,30.7,41.7,35.9,28.9,95,70,39,30.18,30.01,22,2,23,0.00
2013-11-1,56.9,46.9,37.7,41.1,36.1,30.9,84,67,52,30.24,29.92,16,2,16,0.00
2013-11-2,53.5,45.4,40.4,47.5,40.3,34.0,96,83,63,29.92,29.48,20,2,20,0.16
2013-11-3,50.2,39.1,30.6,36.7,30.4,25.0,94,73,39,30.07,29.78,19,2,19,0.01
2013-11-4,48.9,35.2,28.1,29.4,24.8,21.2,79,67,38,30.18,30.07,12,3,12,0.00
2013-11-5,41.3,37.9,34.3,35.7,33.0,26.3,94,83,67,30.25,30.13,9,1,9,0.00
2013-11-6,41.8,39.1,36.4,36.6,34.6,32.1,94,84,76,30.41,30.25,7,1,7,0.05
2013-11-7,40.8,37.5,34.7,38.2,35.7,33.4,96,93,86,30.29,29.79,5,1,5,0.09
2013-11-8,54.4,40.8,34.0,41.0,34.8,30.5,97,81,45,30.18,29.92,16,2,16,0.01
2013-11-9,42.4,36.4,30.4,37.7,32.9,27.8,95,87,73,30.26,30.18,9,2,9,0.18
2013-11-10,43.6,40.3,37.3,40.6,38.3,35.6,97,93,86,30.31,30.18,6,1,6,0.01
2013-11-11,48.1,43.9,40.4,43.1,41.2,39.4,97,90,80,30.40,30.28,6,0,6,0.00
2013-11-12,50.2,45.3,42.9,45.3,42.8,41.1,97,91,80,30.36,30.24,6,1,7,0.06
2013-11-13,57.2,45.1,40.7,45.0,39.7,36.3,92,82,53,30.38,30.24,7,1,18,0.00
2013-11-14,46.9,40.6,37.8,39.0,36.0,34.6,91,84,72,30.24,30.06,6,2,10,0.00
2013-11-15,49.8,44.7,32.4,36.2,31.0,27.9,90,60,43,29.95,29.31,22,3,32,0.00
2013-11-16,48.6,38.5,30.3,37.1,29.7,-99.9,94,74,45,29.64,29.23,22,-3,22,0.04
2013-11-17,44.4,36.4,27.7,37.8,31.8,26.0,93,84,75,29.88,29.67,8,3,15,0.00
2013-11-18,45.6,38.9,32.3,40.4,36.6,31.1,97,92,81,29.85,29.58,6,1,8,0.01
2013-11-19,53.0,41.8,32.1,41.3,31.0,20.6,98,69,39,29.94,29.52,31,4,31,0.01
2013-11-20,41.5,29.1,21.7,22.6,16.5,12.1,76,60,39,30.57,29.94,13,2,13,0.00
2013-11-21,34.4,23.3,16.6,19.7,15.5,11.7,83,73,45,30.80,30.57,9,2,9,0.00
2013-11-22,34.6,24.8,18.6,22.0,17.6,14.1,84,74,54,30.90,30.76,10,2,10,0.00
2013-11-23,35.2,25.2,17.9,24.3,19.4,14.6,88,79,61,30.76,30.44,9,2,9,0.00
2013-11-24,41.0,29.3,20.5,26.7,21.9,17.4,89,75,50,30.48,30.35,8,1,8,0.00
2013-11-25,40.7,30.9,23.4,30.2,25.5,20.4,90,81,62,30.53,30.46,10,1,10,0.00
2013-11-26,34.6,27.8,24.9,28.5,24.2,21.8,89,86,78,30.46,30.27,10,2,10,0.00
2013-11-27,40.1,29.9,23.2,30.6,26.0,21.3,95,86,66,30.29,30.19,8,1,8,0.00
2013-11-28,36.7,28.0,22.4,31.6,25.5,20.4,95,90,81,30.31,30.22,8,1,9,0.00
2013-11-29,33.9,30.3,26.6,31.0,27.9,24.7,94,91,86,30.35,30.29,9,2,9,0.00
2013-11-30,53.9,34.8,31.9,38.2,31.5,30.1,94,88,51,30.36,30.18,5,0,5,0.00
2013-12-1,39.8,35.2,32.5,37.9,33.8,31.4,97,95,90,30.18,29.63,13,2,13,0.29
2013-12-2,42.0,35.6,30.1,36.5,26.9,16.6,95,72,48,30.08,29.65,19,3,19,0.05
2013-12-3,32.8,24.7,18.6,20.2,17.4,13.1,84,74,55,30.41,30.08,10,2,10,0.00
2013-12-4,28.1,20.0,14.8,16.2,12.9,10.2,83,74,50,30.47,30.39,12,2,12,0.00
2013-12-5,22.5,19.1,13.5,10.8,8.3,5.5,73,63,50,30.41,30.35,9,2,9,0.00
2013-12-6,22.7,17.9,9.1,15.1,9.5,2.6,87,70,50,30.41,30.33,9,1,9,0.00
2013-12-7,18.9,8.3,3.2,5.7,1.4,-2.4,80,73,54,30.50,30.39,10,3,10,0.00
2013-12-8,22.0,11.8,4.6,9.2,5.0,-0.7,85,74,54,30.63,30.48,11,2,11,0.00
2013-12-9,21.9,12.9,6.0,12.7,7.5,2.5,87,79,63,30.61,30.48,10,2,10,0.00
2013-12-10,25.7,15.9,9.8,14.6,10.4,5.8,87,79,57,30.57,30.47,10,2,10,0.00
2013-12-11,28.7,22.3,16.7,19.3,16.4,12.8,86,78,63,30.56,30.42,10,2,10,0.00
2013-12-12,30.9,25.2,20.8,23.0,19.8,16.5,89,80,68,30.42,30.19,10,2,10,0.00
2013-12-13,32.4,24.3,19.4,26.0,21.0,16.4,93,87,76,30.50,30.23,8,1,8,0.01
2013-12-14,35.6,28.3,23.1,28.0,24.6,21.1,94,86,72,30.50,30.32,7,1,7,0.00
2013-12-15,54.7,34.0,27.1,37.2,29.4,24.4,92,84,48,30.37,30.21,26,4,26,0.00
2013-12-16,34.3,30.1,24.1,32.8,28.8,22.8,97,95,88,30.44,30.31,17,2,17,0.00
2013-12-17,33.8,29.7,23.9,31.5,28.1,22.6,97,94,90,30.38,30.00,15,2,15,0.00
2013-12-18,45.9,33.1,23.4,32.4,26.5,18.7,98,80,36,30.16,29.92,24,3,27,0.00
2013-12-19,32.6,24.4,18.0,21.2,15.2,11.2,89,69,44,30.36,30.14,13,2,13,0.00
2013-12-20,27.5,21.3,16.2,21.6,16.5,12.5,92,82,59,30.14,29.72,11,1,11,0.00
2013-12-21,29.7,23.3,19.5,24.0,19.3,16.0,93,84,77,30.22,29.91,11,2,11,0.01
2013-12-22,32.6,24.0,17.8,25.6,20.5,15.4,92,87,73,30.37,30.22,10,2,10,0.01
2013-12-23,45.2,31.9,21.3,34.9,27.5,19.6,95,85,59,30.43,30.07,21,2,21,0.09
2013-12-24,37.6,30.1,21.4,31.0,26.5,19.5,96,87,75,30.63,30.42,13,2,14,0.05
2013-12-25,33.9,28.2,18.6,28.3,25.1,16.9,95,88,79,30.65,30.49,8,1,8,0.01
2013-12-26,36.4,32.9,30.5,30.1,28.3,26.3,87,83,77,30.49,30.36,12,1,12,0.00
2013-12-27,34.6,31.2,25.3,30.0,27.8,23.8,96,87,81,30.36,30.11,12,2,12,0.00
2013-12-28,28.8,25.8,20.6,28.1,24.7,19.0,97,95,92,30.55,30.31,6,1,6,0.00
2013-12-29,29.9,27.8,25.7,27.8,26.4,24.7,97,94,90,30.53,30.31,9,1,9,0.00
2013-12-30,33.4,31.0,28.4,29.4,28.1,26.6,94,89,81,30.39,30.17,8,1,8,0.00
2013-12-31,38.6,29.8,23.5,32.5,27.6,22.0,96,92,78,30.41,30.14,10,1,11,0.00
2014-1-1,30.6,28.6,22.9,28.8,27.1,21.4,96,94,92,30.52,30.41,5,1,5,0.00
2014-1-2,35.4,31.1,26.1,32.1,29.4,24.9,96,93,87,30.41,29.84,5,1,5,0.09